This is the latest recevied weather packets stored in our database for station/object KD8UTJ. If no packets are shown the sender has not sent any weather packets the latest 1 day(s).
| Time | Temp. | Humidity | Pressure | Rain* | Wind** | Luminosity | Snow |
|---|---|---|---|---|---|---|---|
| 1778021085 | 25° C | 63% | 1017.8 hPa | 0 mm | 1.34 m/s, 87° | 46 W/m² | - |
| 1778020782 | 25° C | 62% | 1017.9 hPa | 0 mm | 1.34 m/s, 91° | 54 W/m² | - |
| 1778020479 | 25.56° C | 61% | 1018 hPa | 0 mm | 0.89 m/s, 114° | 58 W/m² | - |
| 1778020175 | 25° C | 60% | 1017.7 hPa | 0 mm | 1.79 m/s, 104° | 58 W/m² | - |
| 1778019871 | 25.56° C | 58% | 1017.9 hPa | 0 mm | 0.89 m/s, 60° | 56 W/m² | - |
| 1778019567 | 25.56° C | 57% | 1017.8 hPa | 0 mm | 1.79 m/s, 77° | 53 W/m² | - |
| 1778019265 | 25.56° C | 56% | 1018 hPa | 0 mm | 1.79 m/s, 64° | 58 W/m² | - |
| 1778018962 | 25.56° C | 58% | 1017.9 hPa | 0 mm | 0.45 m/s, 9° | 60 W/m² | - |
| 1778018659 | 25.56° C | 59% | 1018 hPa | 0 mm | 0.89 m/s, 102° | 65 W/m² | - |
| 1778018356 | 25.56° C | 60% | 1018 hPa | 0 mm | 1.34 m/s, 128° | 75 W/m² | - |
| 1778018054 | 25.56° C | 64% | 1017.8 hPa | 0 mm | 1.34 m/s, 85° | 99 W/m² | - |
| 1778017752 | 25.56° C | 62% | 1017.9 hPa | 0 mm | 1.34 m/s, 82° | 118 W/m² | - |
| 1778017449 | 25.56° C | 62% | 1017.6 hPa | 0 mm | 0.45 m/s, 111° | 175 W/m² | - |
| 1778017147 | 25.56° C | 64% | 1017.6 hPa | 0 mm | 1.79 m/s, 61° | 112 W/m² | - |
| 1778016844 | 25.56° C | 60% | 1017.7 hPa | 0 mm | 1.34 m/s, 97° | 107 W/m² | - |
| 1778016540 | 25.56° C | 59% | 1017.7 hPa | 0 mm | 2.24 m/s, 57° | 130 W/m² | - |
| 1778016237 | 25.56° C | 57% | 1017.5 hPa | 0 mm | 1.79 m/s, 52° | 307 W/m² | - |
| 1778015933 | 25.56° C | 57% | 1017.7 hPa | 0 mm | 1.79 m/s, 104° | 240 W/m² | - |
| 1778015631 | 26.11° C | 58% | 1017.7 hPa | 0 mm | 2.68 m/s, 85° | 257 W/m² | - |
| 1778015327 | 26.11° C | 59% | 1017.4 hPa | 0 mm | 1.79 m/s, 101° | 261 W/m² | - |
| 1778015024 | 25.56° C | 60% | 1017.5 hPa | 0 mm | 2.24 m/s, 91° | 203 W/m² | - |
| 1778014721 | 26.11° C | 61% | 1017.6 hPa | 0 mm | 2.68 m/s, 104° | 326 W/m² | - |
| 1778014420 | 26.11° C | 60% | 1017.6 hPa | 0 mm | 3.13 m/s, 132° | 400 W/m² | - |
| 1778014116 | 26.11° C | 58% | 1017.6 hPa | 0 mm | 2.68 m/s, 47° | 421 W/m² | - |
| 1778013814 | 26.11° C | 58% | 1017.9 hPa | 0 mm | 4.02 m/s, 131° | 455 W/m² | - |
* Rain latest hour (hover to see other rain measurements)
** Current wind speed in m/s (hover to see current wind gust speed)